RADUGA 10 [-]

Last updated on Oct. 24, 2020, 5:55 a.m. UTC

1 12897U 81102A   20297.80242306 -.00000219  00000-0  00000-0 0  9997
2 12897  11.3369 315.2848 0003584 155.5975 296.1657  1.00273280 96666
UTC
Height (km)
Latitude
Longitude
Inclination
Orbital Period
UTC large
Height (km)
Speed (km/s)
/
Latitude / Longitude
Inclination (degrees)
Orbital Period (minutes)
Azimuth
Elevation
Range (km)
Doppler Factor
iOS Compass Heading
iOS Angle

Next 30 passes for location: Hong Kong

Rise time Rise Azimuth (degrees) Set time Set Azimuth (degrees) Duration Max altitude (degrees)

No matching passes for this satellites